Weather History for McComb, MS

Change the Weather History Date:

Monday, October 8, 2012

  Actual Average Record
Temperature  
Mean Temperature 57 °F -  
Max Temperature 66 °F 79 °F 92 °F (1990)
Min Temperature 48 °F 55 °F 38 °F (1987)
Degree Days  
Heating Degree Days 8    
Growing Degree Days 7 (Base 50)    
Moisture  
Dew Point 47 °F    
Average Humidity 73    
Maximum Humidity 90    
Minimum Humidity 50    
Precipitation  
Precipitation 0.00 in - - ()
Sea Level Pressure  
Sea Level Pressure 30.13 in    
Wind  
Wind Speed 5 mph (North)    
Max Wind Speed 12 mph    
Max Gust Speed 18 mph    
Visibility 10 miles    
Events      
Averages and records for this station are not official NWS values.
T = Trace of Precipitation, MM = Missing Value Source: NWS Daily Summary

Daily Weather History Graph

Daily Weather History Graph

Search for Another Location

Airport:

Trip Planner

Search our weather history database for the weather conditions in past years. The results will help you decide how hot, cold, wet, or windy it might be!

Date:

Astronomy

Oct. 08, 2012 Rise Set
Actual Time 7:00 AM CDT 6:37 PM CDT
Civil Twilight 6:36 AM CDT 7:01 PM CDT
Nautical Twilight 6:07 AM CDT 7:30 PM CDT
Astronomical Twilight 5:39 AM CDT 7:58 PM CDT
Moon 12:05 AM CDT (10/8) 2:03 PM CDT (10/8)
Length of Visible Light 12h 25m
Length of Day
11h 37m
Last Quarter, 46% of the Moon is Illuminated
Oct 8
Last Quarter
Oct 15
New
Oct 21
First Quarter
Oct 29
Full
Nov 6
Last Quarter

Hourly Weather History & Observations

Time (CDT) Temp. Dew Point Humidity Pressure Visibility Wind Dir Wind Speed Gust Speed Precip Events Conditions
12:53 AM 50.0 °F 46.0 °F 86% 30.11 in 10.0 mi Calm Calm - N/A   Scattered Clouds
1:53 AM 50.0 °F 45.0 °F 83% 30.11 in 10.0 mi Variable 3.5 mph - N/A   Clear
2:53 AM 50.0 °F 45.0 °F 83% 30.10 in 10.0 mi North 4.6 mph - N/A   Clear
3:53 AM 48.9 °F 45.0 °F 86% 30.10 in 10.0 mi North 3.5 mph - N/A   Clear
4:53 AM 48.9 °F 44.1 °F 83% 30.12 in 10.0 mi North 8.1 mph - N/A   Partly Cloudy
5:53 AM 48.9 °F 44.1 °F 83% 30.14 in 10.0 mi North 5.8 mph - N/A   Mostly Cloudy
6:53 AM 48.9 °F 46.0 °F 90% 30.16 in 10.0 mi North 5.8 mph - N/A   Mostly Cloudy
7:53 AM 51.1 °F 46.0 °F 83% 30.17 in 10.0 mi North 6.9 mph - N/A   Mostly Cloudy
8:53 AM 53.1 °F 46.0 °F 77% 30.19 in 10.0 mi NNE 9.2 mph - N/A   Partly Cloudy
9:53 AM 55.9 °F 46.0 °F 69% 30.19 in 10.0 mi North 11.5 mph 17.3 mph N/A   Partly Cloudy
10:53 AM 57.0 °F 46.0 °F 67% 30.19 in 10.0 mi North 8.1 mph - N/A   Overcast
11:53 AM 59.0 °F 46.9 °F 64% 30.18 in 10.0 mi North 8.1 mph - N/A   Overcast
12:53 PM 63.0 °F 46.9 °F 56% 30.16 in 10.0 mi NNW 9.2 mph - N/A   Mostly Cloudy
1:53 PM 64.9 °F 46.0 °F 50% 30.13 in 10.0 mi North 9.2 mph 18.4 mph N/A   Partly Cloudy
2:53 PM 64.9 °F 46.9 °F 52% 30.11 in 10.0 mi NNW 9.2 mph - N/A   Mostly Cloudy
3:53 PM 64.9 °F 48.0 °F 54% 30.10 in 10.0 mi North 9.2 mph - N/A   Clear
4:53 PM 66.0 °F 48.0 °F 52% 30.10 in 10.0 mi NNE 6.9 mph - N/A   Partly Cloudy
5:53 PM 64.9 °F 48.9 °F 56% 30.10 in 10.0 mi NNE 4.6 mph - N/A   Clear
6:53 PM 60.1 °F 51.1 °F 72% 30.11 in 10.0 mi Calm Calm - N/A   Clear
7:53 PM 55.9 °F 51.1 °F 84% 30.12 in 10.0 mi North 4.6 mph - N/A   Clear
9:53 PM 54.0 °F 48.9 °F 83% 30.13 in 10.0 mi North 4.6 mph - N/A   Clear
10:53 PM 53.1 °F 48.9 °F 86% 30.14 in 10.0 mi North 3.5 mph - N/A   Clear
11:53 PM 52.0 °F 48.9 °F 89% 30.13 in 10.0 mi North 3.5 mph - N/A   Clear